Location: Lower Kingswood
(51.2667°N, 0.2167°W)
Time: 12:33:07
(UTC+00:00)

CZ-2C R/B - Pass Details

Date: 26 September 2023
Orbit: 702 x 906 km, 98.1° (Epoch: 10 December)

Event Time Altitude Azimuth Distance (km) Brightness Sun altitude
Rises 03:13:12 0° 14° (NNE) 3,548 7.1 -24.6°
Reaches altitude 10° 03:15:39 10° 16° (NNE) 2,602 6.3 -24.2°
Maximum altitude 03:21:31 80° 104° (ESE) 917 3.3 -23.4°
Enters shadow 03:24:11 34° 187° (S) 1,434 4.1 -23.1°
